IK1YHX Weather Reports


time (UTC)temp
C
wind
direction
speed
KPH
gust
KPH
rain 1hr
cm
rain 24hr
cm
rain mn
cm
humidity
%
barometer
mb
20260507041533 -18 308 4.8 4.8 0.00 0.99 0.00 10 1017.5
20260507040536 -18 242 8.0 8.0 0.00 1.04 0.00 10 1017.4
20260507035602 -18 232 8.0 9.7 0.00 1.09 0.00 10 1017.4
20260507034538 -18 328 6.4 8.0 0.00 1.14 0.00 10 1017.3
20260507033536 -18 270 4.8 4.8 0.00 1.24 0.00 10 1017.2
20260507032602 -18 257 3.2 3.2 0.00 1.30 0.00 10 1017.2
20260507031540 -18 270 3.2 3.2 0.00 1.30 0.00 10 1017.2
20260507030542 -18 270 3.2 3.2 0.00 1.30 0.00 10 1017.2
20260507025542 -18 277 8.0 12.9 0.00 1.30 0.00 10 1017.2
20260507024517 -18 232 4.8 6.4 0.00 1.30 0.00 10 1017.1
20260507023609 -18 214 3.2 3.2 0.00 1.30 0.00 10 1017.2
20260507022516 -18 225 3.2 3.2 0.00 1.30 0.00 10 1017.2
20260507021547 -18 261 4.8 6.4 0.00 1.30 0.00 10 1017.4
20260507020544 -18 225 3.2 3.2 0.00 1.30 0.00 10 1017.5
20260507015543 -18 229 3.2 8.0 0.00 1.30 0.00 10 1017.4
20260507014519 -18 266 3.2 4.8 0.00 1.30 0.00 10 1017.2
20260507013520 -18 270 4.8 4.8 0.00 1.30 0.00 10 1017.3
20260507012526 -18 245 3.2 3.2 0.00 1.30 0.00 10 1017.1
20260507011529 -18 237 4.8 4.8 0.00 1.30 0.00 10 1017.1
20260507005531 -18 205 3.2 4.8 0.00 1.30 0.00 10 1016.9
20260507004538 -18 216 6.4 9.7 0.00 1.35 0.00 10 1016.9
20260507003600 -18 270 3.2 6.4 0.00 1.35 0.00 10 1016.9
20260507002545 -18 231 3.2 6.4 0.00 1.35 0.00 10 1016.8
20260507001545 -18 242 3.2 4.8 0.00 1.35 0.00 10 1016.7
20260507000544 -18 218 4.8 4.8 0.00 1.35 0.00 10 1016.6
20260506235517 8 243 4.8 6.4 0.00 1.35 0.00 79 1016.6
20260506234601 8 254 3.2 3.2 0.00 1.35 0.00 87 1016.6
20260506233524 8 270 4.8 4.8 0.00 1.35 0.00 87 1016.6
20260506232518 8 270 1.6 3.2 0.00 1.35 0.00 87 1016.6
20260506231524 8 257 1.6 3.2 0.00 1.35 0.00 87 1016.6
20260506230550 9 180 3.2 6.4 0.00 1.35 0.00 86 1016.7
20260506225534 9 208 1.6 3.2 0.00 1.35 0.00 86 1016.8
20260506224557 9 239 4.8 8.0 0.00 1.35 0.00 86 1016.7
20260506223549 9 242 1.6 4.8 0.00 1.35 0.00 86 1016.7
20260506222520 10 244 3.2 3.2 0.00 1.35 0.00 85 1016.5
20260506221523 10 238 1.6 1.6 0.00 1.35 0.00 85 1016.4
20260506220523 10 270 1.6 3.2 0.00 1.35 0.00 85 1016.4
20260506215519 10 257 1.6 3.2 0.00 1.35 1.35 85 1016.2
20260506214522 10 287 3.2 3.2 0.00 1.35 1.35 85 1016.2
20260506213527 10 288 1.6 3.2 0.00 1.35 1.35 85 1016.2
20260506212526 10 245 3.2 3.2 0.00 1.35 1.35 85 1016.2
20260506211525 10 270 1.6 3.2 0.00 1.35 1.35 85 1016.0
20260506210600 11 270 3.2 3.2 0.00 1.35 1.35 84 1015.9
20260506205521 11 241 3.2 3.2 0.00 1.35 1.35 84 1015.8
20260506204525 11 0.0 0.0 0.00 1.35 1.35 83 1015.9
20260506203646 11 270 1.6 3.2 0.00 1.35 1.35 83 1015.8
20260506202521 11 180 1.6 3.2 0.00 1.35 1.35 82 1015.7
20260506201519 11 248 1.6 3.2 0.00 1.35 1.35 82 1015.6
20260506200525 12 0.0 0.0 0.00 1.35 1.35 81 1015.3
20260506195638 12 172 1.6 3.2 0.00 1.35 1.35 81 1015.0
20260506194552 12 0 0.0 1.6 0.00 1.35 1.35 80 1014.7
20260506193535 12 270 0.0 1.6 0.00 1.35 1.35 79 1014.4
20260506192533 13 0.0 0.0 0.00 1.35 1.35 79 1014.3
20260506191541 13 0.0 0.0 0.00 1.35 1.35 79 1014.0
20260506190542 13 0 0.0 3.2 0.00 1.35 1.35 78 1013.9
20260506185541 13 0.0 0.0 0.00 1.35 1.35 78 1013.6
20260506184536 14 23 1.6 3.2 0.00 1.35 1.35 78 1013.4
20260506183528 15 0.0 0.0 0.00 1.35 1.35 76 1013.3
20260506182522 15 0 1.6 3.2 0.00 1.35 1.35 74 1012.9
20260506181522 16 23 1.6 3.2 0.00 1.35 1.35 73 1012.5
20260506180522 16 0.0 0.0 0.00 1.35 1.35 70 1012.3
20260506175545 17 14 1.6 3.2 0.00 1.35 1.35 69 1012.2
20260506174516 18 23 0.0 1.6 0.00 1.35 1.35 68 1012.1
20260506173604 18 0.0 0.0 0.00 1.35 1.35 67 1011.9
20260506172544 19 0.0 0.0 0.00 1.35 1.35 66 1011.7
20260506171547 20 31 1.6 1.6 0.00 1.35 1.35 65 1011.7
20260506170544 20 0.0 0.0 0.00 1.35 1.35 66 1011.7
20260506165545 20 23 1.6 3.2 0.00 1.35 1.35 66 1011.6
20260506164519 19 0.0 0.0 0.00 1.35 1.35 68 1011.6
20260506163520 18 23 0.0 1.6 0.00 1.35 1.35 67 1011.5
20260506162537 18 23 0.0 1.6 0.00 1.35 1.35 67 1011.5
20260506161519 19 0.0 0.0 0.00 1.35 1.35 66 1011.6
20260506160544 19 180 0.0 1.6 0.00 1.35 1.35 65 1011.5
20260506155524 19 46 1.6 3.2 0.00 1.35 1.35 67 1011.6
20260506154522 18 35 3.2 4.8 0.00 1.35 1.35 67 1011.6
20260506153524 18 23 1.6 3.2 0.00 1.35 1.35 67 1011.6
20260506152525 18 23 1.6 3.2 0.00 1.35 1.35 68 1011.6
20260506151516 18 23 1.6 3.2 0.00 1.35 1.35 67 1011.7
20260506150548 18 0.0 0.0 0.00 1.35 1.35 67 1011.6
20260506145539 18 70 3.2 3.2 0.00 1.35 1.35 66 1011.5
20260506144544 19 23 1.6 3.2 0.00 1.35 1.35 65 1011.6
20260506143542 20 86 4.8 6.4 0.00 1.35 1.35 64 1011.5
20260506142537 20 23 3.2 4.8 0.00 1.35 1.35 65 1011.6
20260506141559 20 158 0.0 1.6 0.00 1.35 1.35 67 1011.8
20260506140542 19 61 4.8 4.8 0.00 1.35 1.35 67 1011.8
20260506135601 18 23 6.4 6.4 0.00 1.35 1.35 68 1011.9
20260506134537 18 23 4.8 6.4 0.00 1.35 1.35 69 1012.0
20260506133518 18 17 3.2 3.2 0.00 1.35 1.35 68 1012.1
20260506132524 18 23 0.0 3.2 0.00 1.35 1.35 67 1012.2
20260506131529 19 23 1.6 3.2 0.00 1.35 1.35 69 1012.2
20260506130528 18 23 3.2 6.4 0.00 1.35 1.35 71 1012.2
20260506125530 18 23 3.2 4.8 0.00 1.35 1.35 70 1012.1
20260506124534 18 23 1.6 1.6 0.00 1.35 1.35 70 1012.2
20260506123543 18 97 3.2 4.8 0.00 1.35 1.35 70 1012.1
20260506122544 18 23 8.0 11.3 0.00 1.35 1.35 68 1012.0
20260506121535 18 23 6.4 9.7 0.00 1.35 1.35 67 1012.0
20260506120533 19 23 3.2 3.2 0.00 1.35 1.35 66 1012.0
20260506115552 20 23 6.4 9.7 0.00 1.35 1.35 65 1012.0
20260506114533 20 35 3.2 6.4 0.00 1.35 1.35 67 1012.1
20260506113533 20 80 3.2 8.0 0.00 1.35 1.35 68 1012.0
20260506112533 20 70 3.2 4.8 0.00 1.35 1.35 69 1012.1
20260506111535 19 24 4.8 6.4 0.00 1.35 1.35 71 1012.1
20260506110535 18 44 4.8 9.7 0.00 1.35 1.35 74 1012.2
20260506105534 -5 33 4.8 6.4 0.00 1.35 1.35 34 1012.4
20260506104531 -18 23 4.8 9.7 0.00 1.35 1.35 10 1012.6
20260506103531 -18 23 3.2 6.4 0.00 1.35 1.35 10 1012.7
20260506102523 36 23 6.4 8.0 0.00 1.35 1.35 10 1012.7
20260506101542 14 109 3.2 4.8 0.00 1.35 1.35 10 1012.6
20260506100531 -5 23 1.6 3.2 0.00 1.35 1.35 46 1012.7
20260506095535 20 23 3.2 4.8 0.00 1.35 1.35 46 1012.7
20260506094537 0 75 1.6 4.8 0.00 1.35 1.35 59 1012.9
20260506093537 36 120 3.2 3.2 0.00 1.35 1.35 10 1012.9
20260506092537 36 23 1.6 3.2 0.00 1.35 1.35 10 1012.9
20260506091539 36 23 3.2 4.8 0.00 1.35 1.35 10 1013.0
20260506090536 36 62 3.2 4.8 0.00 1.35 1.35 10 1013.0
20260506085538 35 23 3.2 9.7 0.00 1.35 1.35 99 1012.9
20260506084559 -27 113 4.8 6.4 0.00 1.35 1.35 99 1012.9
20260506083543 36 23 3.2 3.2 0.00 1.35 1.35 28 1012.8
20260506082544 36 158 1.6 3.2 0.00 1.35 1.35 10 1012.8
20260506081519 -28 274 1.6 1.6 0.00 1.35 1.35 99 1012.7
20260506080519 -27 225 1.6 3.2 0.00 1.35 1.35 99 1012.8
20260506072535 34 203 1.6 3.2 0.00 1.35 1.35 99 1013.0
20260506071604 36 0.0 0.0 0.00 1.35 1.35 10 1013.1
20260506070545 36 209 1.6 4.8 0.00 1.35 1.35 10 1013.1
20260506061537 36 0.0 0.0 0.10 1.35 1.35 10 1013.7
20260506060517 36 0.0 0.0 0.15 1.35 1.35 10 1013.7
20260506050524 36 0.0 0.0 0.89 1.19 1.19 10 1013.8
20260506044528 36 0.0 0.0 0.84 1.04 1.04 10 1013.9
20260506043543 36 0.0 0.0 0.84 0.94 0.94 10 1013.9
20260506042520 36 23 1.6 3.2 0.56 0.61 0.61 10 1014.0